Regional Weather Roundup
Issued by NWS

Home | Current Version | Previous Version | Text Only | Print | Product List | Glossary On
Versions: 1 2 3 4 5 6 7 8 9 10 11 12 13 14 15 16 17 18 19 20 21 22 23 24 25 26 27
000
ASCA42 TJSJ 282010
RWRPR
PUERTO RICO/U.S. VIRGIN ISLANDS HOURLY WEATHER ROUNDUP
NATIONAL WEATHER SERVICE SAN JUAN PR
400 PM AST THU APR 28 2016

PRZ001-004-282100-
PUERTO RICO

CITY           SKY/WX    TMP DP  RH WIND       PRES   REMARKS
SAN JUAN LMM   PTSUNNY   84  73  70 S7        29.87F HX  91
AGUADILLA      LGT RAIN  81  77  89 N3        29.91F
CEIBA          MOSUNNY   84  73  70 S17       29.92F HX  91
$$

PRZ006-007-282100-
U.S. VIRGIN ISLANDS

CITY           SKY/WX    TMP DP  RH WIND       PRES   REMARKS
CHARLOTTE AMA  PTSUNNY   84  77  79 SE14      29.90F HX  94
CHRISTIANSTED  MOSUNNY   86  75  70 E14       29.91F HX  95
$$

HOURLY WEATHER ROUNDUP FOR THE NEWS MEDIA

CITY           SKY/WX    TMP DP  RH WIND       PRES   REMARKS
ORLANDO        PTSUNNY   89  63  41 S8        29.95F HX  90
NEW YORK       CLOUDY    53  32  44 S12       30.06S
NEWARK         CLOUDY    55  31  39 S12       30.03F
CHICAGO        CLOUDY    50  42  74 NE9       29.90R
HARTFORD       PTSUNNY   52  32  46 S14       30.01F
BOSTON         CLOUDY    49  31  49 E18       30.01F
DALLAS         SUNNY     84  56  38 SE16      29.85F
PHILADELPHIA   CLOUDY    49  39  68 E6        30.04S
LOS ANGELES    MOSUNNY   64  45  49 W15       29.87S
WASHINGTON DC  DRIZZLE   52  50  93 NE5       29.97S FOG



USA.gov is the U.S. government's official web portal to all federal, state and local government web resources and services.